Location: Mountain Grove
(34.0887°N, 86.6172°W)
Time: 15:02:34
(UTC+00:00)

Cosmos 1953 Rocket - Pass Details

Date: 14 July 2020
Orbit: 605 x 634 km, 82.5° (Epoch: 12 August)

Event Time Altitude Azimuth Distance (km) Brightness Sun altitude
Rises 01:23:45 0° 163° (SSE) 2,844 6.5 -5.3°
Reaches altitude 10° 01:26:07 10° 153° (SSE) 1,945 5.6 -5.7°
Maximum altitude 01:29:56 32° 91° (E) 1,053 4.3 -6.4°
Drops below altitude 10° 01:33:47 10° 28° (NNE) 1,962 6.2 -7.1°
Sets 01:36:10 0° 19° (NNE) 2,873 7.2 -7.5°
